CZ-3C DEB, 39341

Orbit data source: Space-Track

CZ-3C DEB, 39341 is space debris in HEO originally from a launch on Sun, 31 Oct 2010 UTC launched from the Xichang Space Center, China (XSC). Debris objects in space refer to the collection of defunct objects orbiting the Earth. Examples of debris include non-operational satellites, rocket bodies, and fragments generated from explosions, collisions, or faulty payload assembly.

Loading next visibility...
Identifier
39341, 2010-057F
Orbit
HEO
Country
Flag of CNCN / PRC
Related business
Manufacturer
CALT
Mission
Spacecraft
Bus & Motor
Unknown
Mass
Unknown
Launch date (UTC)
2010-10-31 (15 years ago)
Launch vehicle
Unknown
Launch site
Xichang Space Center, China (XSC)
Object type
Payload
Rocket body
Debris
Shape & HBR
Unknown shape, 0.3 m
Radar Cross Section
Medium (>0.1 m² and <1 m²)

Expand to show TLE details & history
Last TLE update: 1 day ago

TLE from 1 day ago
0 CZ-3C DEB
1 39341U 10057F   25293.06755701  .00034428  00000-0  36453-1 0  9998
2 39341  18.9830  95.2964 6754288 153.5334 268.6298  2.90340946112642
Epoch: 2025-10-20T01:37Z
TLE epoch observation values (Epoch: 2025-10-20T01:37:16.925Z)
Latitude
-0.00008°
Longitude
42.2442°
Altitude
22,118.938 km
Speed
2.961 km/s
True Right ascension
06h 21m 21s
True Declination
0° 00' 00"
Sunlit
Object was in daylight at epoch
Visualization orbit readout
Latitude
Unknown
Longitude
Unknown
Altitude
Unknown
Speed
Unknown
Apparent Right ascension
Unknown
Apparent Declination
Unknown
Sunlit
N/A
Visualization observer readout
Local Sidereal Time
21:44:42
Azimuth
Unknown
Elevation
Unknown
Doppler factor
Unknown
Orbital elements
Apogee altitude
28,403.422 km
Perigee altitude
359.895 km
Semi-major axis
20,759.795 km
Eccentricity
0.67543
Inclination
18.983°
RAAN
95.2964°
Arg. of periapsis
153.5334°
True anomaly
206.55644°
Mean anomaly
268.6298°
Eccentric anomaly
236.39738°
Mean motion
0.72562 °/min
Orbital period
496.13 mins
BSTAR
0.036453
Loading maneuver chart data...
Computing Atmospheric mass density...
Loading historical data...
Loading historical data...
Loading historical data...
Loading historical data...
Loading historical data...
Loading historical data...
Loading historical data...

Documentation

Showing up to 5 results
|